星链-2549 (STARLINK-2549 )

导读 | 星芒AI

STARLINK-2549 是 SpaceX 星链计划中的一颗低轨通信卫星,属于第 25 批发射的星链卫星群。该卫星旨在为全球用户提供高速互联网服务,尤其改善偏远地区的网络接入。它运行在约 550 公里的轨道高度,采用先进的推进和通信技术,具备自动避碰功能,以确保太空安全。作为星链星座的一部分,STARLINK-2549 有助于构建更稳定、覆盖更广的卫星互联网系统。

基本信息
目录编号:
48314
目录名称:
STARLINK-2549
国际标识:
2021-036AQ
轨道中心:
EARTH
卫星名称:
星链-2549
卫星全名:
星链-2549 (STARLINK-2549 )
卫星状态:
在轨 (已飞行1645 天)
发射日期:
2021-04-29 UTC
国别 :
美国 (US)
星等 :
--
轨道信息
数据来源 国际轨道数据
星历时间: 2025-10-30T15:22:07+0800
5小时前
查看轨道信息
半长轴: 6925.377km
偏心率: 0.0001681
轨道倾角: 53.056°
近地点辐角 88.221°
升交点赤经 316.928°
平近点角 271.897°
近地点: 546.077km
远地点: 548.407km
周期: 95.593分钟
每日圈数: 15.063909
详细信息
固有亮度:
5
最大亮度:
2.5
卫星平台:
Starlink V1.0
覆盖范围:
全球
运营商:
太空探索技术公司
运营商所在国:
美国
制造商(研发单位):
太空探索技术公司
制造商所在国:
美国
使用方式:
暂无
卫星简介
星链(Starlink)计划是由太空探索技术公司(SpaceX)提出的一个巨型低轨卫星互联网星座项目,计划在2019年至2024年间在太空搭建由约1.2万颗卫星组成的“星链”网络,其中1584颗将部署在地球上空550千米处的近地轨道,并从2020年开始工作。该卫星仍在工作。
2D轨道图
3D轨道图
轨道高度分析图
轨道倾角分析图
轨道综合分析图
查看轨道综合分析图